| time (UTC) | temp C | wind direction | speed KPH | gust KPH | rain 1hr cm | rain 24hr cm | rain mn cm | humidity % | barometer mb |
| 20260505223525 | 33 | 23 | 1.6 | 9.7 | 0.00 | 0.00 | 0.00 | ||
| 20260505220525 | 33 | 291 | 1.6 | 14.5 | 0.00 | 0.00 | 0.00 | ||
| 20260505213524 | 33 | 319 | 4.8 | 11.3 | 0.00 | 0.00 | 0.00 | ||
| 20260505210524 | 32 | 328 | 3.2 | 9.7 | 0.00 | 0.00 | 0.00 | ||
| 20260505203524 | 32 | 343 | 4.8 | 11.3 | 0.00 | 0.00 | 0.00 | ||
| 20260505200523 | 31 | 269 | 4.8 | 12.9 | 0.00 | 0.00 | 0.00 | ||
| 20260505193523 | 30 | 295 | 4.8 | 9.7 | 0.00 | 0.00 | 0.00 | ||
| 20260505190523 | 29 | 285 | 3.2 | 12.9 | 0.00 | 0.00 | 0.00 | ||
| 20260505183522 | 27 | 8 | 4.8 | 16.1 | 0.00 | 0.00 | 0.00 | ||
| 20260505180522 | 26 | 267 | 6.4 | 16.1 | 0.00 | 0.00 | 0.00 | ||
| 20260505173521 | 25 | 264 | 6.4 | 12.9 | 0.00 | 0.00 | 0.00 | ||
| 20260505170521 | 23 | 283 | 4.8 | 14.5 | 0.00 | 0.00 | 0.00 | ||
| 20260505163521 | 22 | 307 | 3.2 | 9.7 | 0.00 | 0.00 | 0.00 | ||
| 20260505160520 | 21 | 270 | 4.8 | 12.9 | 0.00 | 0.00 | 0.00 | ||
| 20260505150520 | 18 | 273 | 0.0 | 9.7 | 0.00 | 0.00 | 0.00 | ||
| 20260505140519 | 15 | 264 | 0.0 | 6.4 | 0.00 | 0.00 | 0.00 | ||
| 20260505123518 | 15 | 0 | 0.0 | 0.0 | 0.00 | 0.00 | 0.00 | ||
| 20260505120517 | 15 | 0 | 0.0 | 0.0 | 0.00 | 0.00 | 0.00 | ||
| 20260505113517 | 16 | 0 | 0.0 | 0.0 | 0.00 | 0.00 | 0.00 | ||
| 20260505110516 | 16 | 0 | 0.0 | 0.0 | 0.00 | 0.00 | 0.00 | ||
| 20260505100516 | 17 | 0 | 0.0 | 0.0 | 0.00 | 0.00 | 0.00 | ||
| 20260505093515 | 17 | 0 | 0.0 | 0.0 | 0.00 | 0.00 | 0.00 | ||
| 20260505090618 | 18 | 0 | 0.0 | 0.0 | 0.00 | 0.00 | 0.00 | ||
| 20260505090515 | 18 | 0 | 0.0 | 0.0 | 0.00 | 0.00 | 0.00 | ||
| 20260505083514 | 18 | 0 | 0.0 | 0.0 | 0.00 | 0.00 | 0.00 | ||
| 20260505080514 | 18 | 0 | 0.0 | 0.0 | 0.00 | 0.00 | 0.00 | ||
| 20260505073514 | 18 | 0 | 0.0 | 0.0 | 0.00 | 0.00 | 0.00 | ||
| 20260505070513 | 20 | 0 | 0.0 | 0.0 | 0.00 | 0.00 | 0.00 | ||
| 20260505063513 | 21 | 0 | 0.0 | 0.0 | 0.00 | 0.00 | 0.00 | ||
| 20260505060512 | 21 | 0 | 0.0 | 0.0 | 0.00 | 0.00 | 0.00 | ||
| 20260505053512 | 23 | 0 | 0.0 | 0.0 | 0.00 | 0.00 | 0.00 | ||
| 20260505050512 | 23 | 0 | 0.0 | 0.0 | 0.00 | 0.00 | 0.00 | ||
| 20260505040511 | 26 | 0 | 0.0 | 0.0 | 0.00 | 0.00 | 0.00 | ||
| 20260505033510 | 26 | 0 | 0.0 | 0.0 | 0.00 | 0.00 | 0.00 | ||
| 20260505030510 | 27 | 0 | 0.0 | 0.0 | 0.00 | 0.00 | 0.00 | ||
| 20260505023510 | 30 | 0 | 0.0 | 0.0 | 0.00 | 0.00 | 0.00 | ||
| 20260505020509 | 30 | 281 | 0.0 | 3.2 | 0.00 | 0.00 | 0.00 | ||
| 20260505013509 | 31 | 0 | 0.0 | 0.0 | 0.00 | 0.00 | 0.00 | ||
| 20260505010508 | 31 | 0 | 0.0 | 0.0 | 0.00 | 0.00 | 0.00 | ||
| 20260505003508 | 32 | 27 | 3.2 | 8.0 | 0.00 | 0.00 | 0.00 | ||
| 20260505000508 | 32 | 283 | 1.6 | 8.0 | 0.00 | 0.00 | 0.00 | ||
| 20260504233507 | 32 | 349 | 4.8 | 12.9 | 0.00 | 0.00 | 0.00 | ||
| 20260504230507 | 34 | 301 | 1.6 | 8.0 | 0.00 | 0.00 | 0.00 |